Anchorage, AK

8:09 AM AKST on February 11, 2016 (GMT -0900)
Stevens Anchorage International

Weather History for PANC - February, 2012

Change the Weather History Date:

Monday, February 13, 2012

  Actual Average Record
Temperature  
Mean Temperature 31 °F 20 °F  
Max Temperature 32 °F 26 °F 42 °F (1978)
Min Temperature 29 °F 14 °F -25 °F (1956)
Degree Days  
Heating Degree Days 34    
Month to date heating degree days 495  
Since 1 July heating degree days 7103  
Cooling Degree Days 0    
Month to date cooling degree days 0  
Year to date cooling degree days 0  
Moisture  
Dew Point 29 °F    
Average Humidity 84    
Maximum Humidity 92    
Minimum Humidity 75    
Precipitation  
Precipitation T in 0.02 in 0.33 in (1990)
Month to date precipitation 0.90 0.35  
Year to date precipitation 2.21 1.08  
Snow  
Snow T in 0.40 in 5.00 in (1990)
Month to date snowfall 10.9 5.3  
Since 1 July snowfall 103.0 54.7  
Snow Depth 27.00 in    
Sea Level Pressure  
Sea Level Pressure 29.34 in    
Wind  
Wind Speed 8 mph (West)    
Max Wind Speed 14 mph    
Max Gust Speed -    
Visibility 5 miles    
Events Fog , Snow    
T = Trace of Precipitation, MM = Missing Value Source: NWS Daily Summary

Daily Weather History Graph

Daily Weather History Graph

Search for Another Location

Airport or City:

Trip Planner

Search our weather history database for the weather conditions in past years. The results will help you decide how hot, cold, wet, or windy it might be!

Date:

Astronomy

Feb. 13, 2012 Rise Set
Actual Time 8:48 AM AKST 5:40 PM AKST
Civil Twilight 8:02 AM AKST 6:26 PM AKST
Nautical Twilight 7:11 AM AKST 7:17 PM AKST
Astronomical Twilight 6:22 AM AKST 8:07 PM AKST
Moon 2:00 AM AKST (2/13) 9:38 AM AKST (2/13)
Length of Visible Light 10h 24m
Length of Day
8h 51m
Waning Gibbous, 60% of the Moon is Illuminated
Feb 13
Waning Gibbous
Feb 14
Last Quarter
Feb 21
New
Feb 29
First Quarter
Mar 8
Full

Hourly Weather History & Observations

Time (AKST) Temp. Windchill Dew Point Humidity Pressure Visibility Wind Dir Wind Speed Gust Speed Precip Events Conditions
12:53 AM 30.9 °F 20.7 °F 28.0 °F 89% 29.36 in 10.0 mi West 13.8 mph - N/A   Mostly Cloudy
1:53 AM 30.0 °F 21.1 °F 27.0 °F 88% 29.34 in 10.0 mi NW 10.4 mph - N/A   Mostly Cloudy
2:53 AM 30.9 °F 21.7 °F 27.0 °F 85% 29.34 in 10.0 mi NW 11.5 mph - N/A   Mostly Cloudy
3:53 AM 33.1 °F - 27.0 °F 78% 29.31 in 10.0 mi Calm Calm - N/A   Mostly Cloudy
4:53 AM 30.9 °F 27.5 °F 26.1 °F 82% 29.30 in 10.0 mi NW 3.5 mph - N/A   Mostly Cloudy
5:53 AM 30.0 °F 23.2 °F 25.0 °F 82% 29.30 in 10.0 mi NNW 6.9 mph - N/A   Mostly Cloudy
6:53 AM 30.9 °F 22.2 °F 25.0 °F 79% 29.29 in 10.0 mi WNW 10.4 mph - N/A   Mostly Cloudy
7:53 AM 30.9 °F 21.7 °F 26.1 °F 82% 29.28 in 10.0 mi West 11.5 mph - N/A   Mostly Cloudy
8:53 AM 30.9 °F 20.7 °F 26.1 °F 82% 29.28 in 10.0 mi West 13.8 mph - N/A   Mostly Cloudy
9:53 AM 30.9 °F 24.3 °F 27.0 °F 85% 29.28 in 10.0 mi WNW 6.9 mph - N/A   Overcast
10:53 AM 30.9 °F - 27.0 °F 85% 29.29 in 10.0 mi Calm Calm - N/A   Overcast
11:53 AM 30.9 °F 26.2 °F 27.0 °F 85% 29.29 in 10.0 mi WSW 4.6 mph - 0.00 in   Overcast
12:53 PM 32.0 °F 25.6 °F 28.9 °F 88% 29.30 in 10.0 mi West 6.9 mph - N/A   Overcast
1:51 PM 32.0 °F 27.5 °F 28.4 °F 87% 29.29 in 10.0 mi WNW 4.6 mph - 0.00 in Snow Light Snow
1:53 PM 32.0 °F 27.5 °F 28.9 °F 88% 29.30 in 10.0 mi Variable 4.6 mph - 0.00 in Snow Light Snow
2:53 PM 32.0 °F 24.2 °F 28.9 °F 88% 29.33 in 2.0 mi NW 9.2 mph - 0.00 in Snow Light Snow
3:11 PM 32.0 °F 24.8 °F 28.4 °F 87% 29.32 in 3.0 mi NW 8.1 mph - 0.00 in Snow Light Snow
3:43 PM 32.0 °F 26.4 °F 30.2 °F 93% 29.32 in 2.5 mi NW 5.8 mph - 0.00 in Snow Light Snow
3:53 PM 32.0 °F 26.4 °F 30.0 °F 92% 29.33 in 2.0 mi NNW 5.8 mph - 0.00 in Snow Light Snow
4:01 PM 32.0 °F 28.7 °F 30.2 °F 93% 29.33 in 1.5 mi NNW 3.5 mph - 0.00 in Snow Light Snow
4:53 PM 32.0 °F - 30.9 °F 96% 29.33 in 1.2 mi Calm Calm - 0.02 in Snow Light Snow
5:15 PM 32.0 °F - 30.2 °F 93% 29.32 in 1.2 mi Calm Calm - 0.00 in Snow Light Snow
5:34 PM 33.8 °F - 30.2 °F 87% 29.32 in 0.5 mi Calm Calm - 0.01 in Snow Light Snow
5:53 PM 33.1 °F - 30.9 °F 92% 29.34 in 0.5 mi Calm Calm - 0.02 in Snow Light Snow
6:22 PM 32.0 °F - 30.2 °F 93% 29.34 in 0.5 mi Calm Calm - 0.01 in Snow Light Snow
6:44 PM 32.0 °F - 30.2 °F 93% 29.35 in 1.5 mi Calm Calm - 0.01 in Snow Light Snow
6:53 PM 32.0 °F - 30.9 °F 96% 29.36 in 1.5 mi Calm Calm - 0.02 in Snow Light Snow
7:08 PM 32.0 °F - 30.2 °F 93% 29.35 in 1.0 mi Calm Calm - 0.00 in Snow Light Snow
7:34 PM 32.0 °F - 30.2 °F 93% 29.36 in 0.8 mi Calm Calm - 0.01 in Snow Light Snow
7:53 PM 33.1 °F 30.0 °F 30.9 °F 92% 29.37 in 0.5 mi SE 3.5 mph - 0.03 in Fog , Snow Snow
8:53 PM 33.1 °F 26.9 °F 30.9 °F 92% 29.39 in 0.8 mi South 6.9 mph - 0.07 in Snow Light Snow
9:01 PM 33.8 °F 27.0 °F 30.2 °F 87% 29.39 in 1.0 mi South 8.1 mph - 0.00 in Snow Light Snow
9:24 PM 33.8 °F 26.4 °F 30.2 °F 87% 29.39 in 1.5 mi South 9.2 mph - 0.01 in Snow Light Snow
9:35 PM 33.8 °F 25.3 °F 30.2 °F 87% 29.40 in 1.2 mi South 11.5 mph - 0.02 in Snow Light Snow
9:53 PM 33.1 °F 25.5 °F 30.9 °F 92% 29.41 in 1.8 mi South 9.2 mph - 0.02 in Snow Light Snow
10:07 PM 33.8 °F 25.3 °F 30.2 °F 87% 29.41 in 2.0 mi South 11.5 mph - 0.01 in Snow Light Snow
10:47 PM 33.8 °F 25.3 °F 30.2 °F 87% 29.43 in 1.5 mi South 11.5 mph - 0.02 in Snow Light Snow
10:53 PM 33.1 °F 23.9 °F 30.9 °F 92% 29.44 in 1.5 mi South 12.7 mph - 0.02 in Snow Light Snow
11:53 PM 32.0 °F 23.6 °F 30.0 °F 92% 29.48 in 1.5 mi South 10.4 mph - 0.03 in Snow Light Snow